This demonstration page uses our WeatherBlox Daily Observations layout. Learn more.

39.92423, -83.80882

Hourly Observations for May 8, 2015

Temp ( °F °C ) Dew Point ( °F °C ) Humidity (%) Winds ( mph kmh ) Pressure ( in mb ) Visibility ( mi km ) Precip ( " mm )
12:56 am 00:56 Clear 70 21.1 57 13.8 63 63 S 6 9 30.04 1017 7 11.26538 0 0
1:56 am 01:56 Hazy 68 20 58 14.4 70 70 S 3 6 30.04 1017 6 9.65604 0 0
2:56 am 02:56 Clear 67 19.4 58 14.4 73 73 S 3 6 30.04 1017 7 11.26538 0 0
3:56 am 03:56 Clear with Mist and Fog 61 16.1 57 13.8 86 86 Calm 30.05 1018 2.5 4.02335 0 0
4:06 am 04:06 Clear with Mist and Fog 61 16 57 14 88 88 Calm 30.06 1018 4 6.43736 0 0
4:49 am 04:49 Clear with Mist and Fog 61 16 57 14 88 88 SE 3 6 30.06 1018 2 3.21868 0 0
4:56 am 04:56 Clear with Mist and Fog 59 15 56 13.3 90 90 SSE 3 6 30.05 1018 2 3.21868 0 0
5:31 am 05:31 Clear with Mist and Fog 61 16 57 14 88 88 Calm 30.09 1019 5 8.0467 0 0
5:56 am 05:56 Clear with Mist and Fog 60 15.5 57 13.8 90 90 Calm 30.06 1018 6 9.65604 0 0
6:56 am 06:56 Sunny with Mist and Fog 59 15 56 13.3 90 90 Calm 30.08 1019 5 8.0467 0 0
7:56 am 07:56 Sunny with Mist and Fog 66 18.8 62 16.6 87 87 Calm 30.09 1019 4 6.43736 0 0
8:56 am 08:56 Hazy 73 22.7 63 17.2 71 71 S 3 6 30.1 1019 5 8.0467 0 0
9:56 am 09:56 Hazy 78 25.5 58 14.4 50 50 SW 5 7 30.1 1019 5 8.0467 0 0
10:56 am 10:56 Hazy 82 27.7 56 13.3 41 41 SW 8 13 30.09 1019 6 9.65604 0 0
11:56 am 11:56 Hazy 83 28.3 58 14.4 43 43 WSW 12 19 30.08 1019 6 9.65604 0 0
12:56 pm 12:56 Hazy 86 30 56 13.3 36 36 SSW 13 20 30.07 1018 6 9.65604 0 0
1:56 pm 13:56 Hazy 86 30 55 12.7 35 35 SW 14 22 30.05 1018 6 9.65604 0 0
2:56 pm 14:56 Hazy 87 30.5 57 13.8 36 36 SSW 9 15 30.03 1017 6 9.65604 0 0
3:56 pm 15:56 Hazy 87 30.5 55 12.7 34 34 S 12 19 30.02 1017 6 9.65604 0 0
4:56 pm 16:56 Hazy 88 31.1 55 12.7 32 32 S 9 15 30 1016 5 8.0467 0 0
5:56 pm 17:56 Hazy 87 30.5 56 13.3 35 35 SW 14 22 30 1016 6 9.65604 0 0
6:56 pm 18:56 Hazy 85 29.4 56 13.3 37 37 SW 13 20 30 1016 6 9.65604 0 0
7:56 pm 19:56 Hazy 81 27.2 58 14.4 45 45 SSW 5 7 30.01 1016 6 9.65604 0 0
8:56 pm 20:56 Clear 77 25 57 13.8 50 50 S 3 6 30.01 1016 7 11.26538 0 0
9:56 pm 21:56 Clear 74 23.3 57 13.8 55 55 S 5 7 30.02 1017 7 11.26538 0 0
10:56 pm 22:56 Clear 71 21.6 57 13.8 61 61 SSW 6 9 30.04 1017 7 11.26538 0 0
11:56 pm 23:56 Clear 72 22.2 57 13.8 59 59 S 5 7 30.03 1017 7 11.26538 0 0

Powered by AerisWeather